Weather History for KSTE - May, 2012

Change the Weather History Date:

Sunday, May 20, 2012

  Actual Average Record
Temperature  
Mean Temperature 66 °F -  
Max Temperature 84 °F 70 °F 90 °F (1948)
Min Temperature 49 °F 46 °F 25 °F (1954)
Cooling Degree Days 2    
Growing Degree Days 16 (Base 50)    
Moisture  
Dew Point 55 °F    
Average Humidity 62    
Maximum Humidity 93    
Minimum Humidity 40    
Precipitation  
Precipitation 0.00 in - - ()
Sea Level Pressure  
Sea Level Pressure 29.94 in    
Wind  
Wind Speed 10 mph (SSW)    
Max Wind Speed 24 mph    
Max Gust Speed 36 mph    
Visibility 10 miles    
Events Rain    
Averages and records for this station are not official NWS values.
T = Trace of Precipitation, MM = Missing Value Source: NWS Daily Summary

Daily Weather History Graph

Daily Weather History Graph

Search for Another Location

Airport or City:

Trip Planner

Search our weather history database for the weather conditions in past years. The results will help you decide how hot, cold, wet, or windy it might be!

Date:

Astronomy

May. 20, 2012 Rise Set
Actual Time 5:24 AM CDT 8:25 PM CDT
Civil Twilight 4:50 AM CDT 8:59 PM CDT
Nautical Twilight 4:06 AM CDT 9:44 PM CDT
Astronomical Twilight 3:13 AM CDT 10:37 PM CDT
Moon 5:05 AM CDT (5/20) 8:24 PM CDT (5/20)
Length of Visible Light 16h 09m
Length of Day
15h 00m
Waning Crescent, 0% of the Moon is Illuminated
May 20
Waning Crescent
May 20
New
May 28
First Quarter
Jun 4
Full
Jun 11
Last Quarter

Hourly Weather History & Observations

Time (CDT) Temp. Heat Index Dew Point Humidity Pressure Visibility Wind Dir Wind Speed Gust Speed Precip Events Conditions
12:15 AM 71.6 °F - 54.0 °F 54% 29.96 in 10.0 mi South 4.6 mph - N/A   Clear
12:35 AM 70.5 °F - 54.1 °F 56% 29.96 in 10.0 mi SSE 4.6 mph - N/A   Scattered Clouds
12:55 AM 68.4 °F - 54.5 °F 61% 29.96 in 10.0 mi SSE 4.6 mph - N/A   Clear
1:15 AM 68.0 °F - 54.7 °F 62% 29.95 in 10.0 mi SE 8.1 mph - N/A   Clear
1:35 AM 68.9 °F - 54.5 °F 60% 29.94 in 10.0 mi SSE 5.8 mph - N/A   Clear
1:55 AM 68.2 °F - 54.1 °F 61% 29.94 in 10.0 mi SSE 6.9 mph - N/A   Clear
2:15 AM 67.6 °F - 54.0 °F 61% 29.93 in 10.0 mi SSE 4.6 mph - N/A   Clear
2:35 AM 67.1 °F - 54.0 °F 63% 29.93 in 10.0 mi SE 4.6 mph - N/A   Clear
2:55 AM 67.8 °F - 54.0 °F 61% 29.94 in 10.0 mi South 5.8 mph - N/A   Clear
3:15 AM 68.4 °F - 54.1 °F 60% 29.94 in 10.0 mi South 6.9 mph - N/A   Clear
3:35 AM 69.8 °F - 54.0 °F 57% 29.94 in 10.0 mi South 9.2 mph - N/A   Clear
3:55 AM 69.4 °F - 54.1 °F 58% 29.94 in 10.0 mi South 9.2 mph - N/A   Clear
4:15 AM 69.1 °F - 54.5 °F 60% 29.94 in 10.0 mi South 5.8 mph - N/A   Clear
4:35 AM 69.1 °F - 54.5 °F 60% 29.94 in 10.0 mi South 8.1 mph - N/A   Clear
4:55 AM 69.1 °F - 54.5 °F 60% 29.94 in 10.0 mi South 6.9 mph - N/A   Clear
5:15 AM 68.9 °F - 54.7 °F 60% 29.93 in 10.0 mi SSE 4.6 mph - N/A   Clear
5:35 AM 68.9 °F - 55.4 °F 62% 29.93 in 10.0 mi South 6.9 mph - N/A   Scattered Clouds
5:55 AM 69.3 °F - 55.6 °F 62% 29.93 in 10.0 mi SSE 6.9 mph - N/A   Clear
6:15 AM 68.9 °F - 55.8 °F 63% 29.93 in 10.0 mi SSE 8.1 mph - N/A   Scattered Clouds
6:35 AM 69.8 °F - 56.3 °F 62% 29.93 in 10.0 mi South 9.2 mph - N/A   Clear
6:55 AM 70.7 °F - 56.8 °F 61% 29.93 in 10.0 mi SSE 6.9 mph - N/A   Clear
7:15 AM 72.3 °F - 57.4 °F 59% 29.93 in 10.0 mi SSE 6.9 mph - N/A   Clear
7:35 AM 72.1 °F - 57.4 °F 60% 29.93 in 10.0 mi South 9.2 mph - N/A   Clear
7:55 AM 73.9 °F - 58.1 °F 58% 29.93 in 10.0 mi South 11.5 mph - N/A   Clear
8:15 AM 74.7 °F - 58.5 °F 57% 29.93 in 10.0 mi South 10.4 mph 16.1 mph N/A   Clear
8:35 AM 74.1 °F - 58.3 °F 58% 29.92 in 10.0 mi South 12.7 mph 21.9 mph N/A   Clear
8:55 AM 75.2 °F - 58.8 °F 57% 29.91 in 10.0 mi South 12.7 mph 17.3 mph N/A   Clear
9:15 AM 76.8 °F - 58.8 °F 54% 29.91 in 10.0 mi South 16.1 mph 20.7 mph N/A   Clear
9:35 AM 78.1 °F - 59.0 °F 52% 29.91 in 10.0 mi South 13.8 mph 21.9 mph N/A   Clear
9:55 AM 78.8 °F - 59.0 °F 51% 29.90 in 10.0 mi South 18.4 mph 24.2 mph N/A   Clear
10:15 AM 79.7 °F - 58.8 °F 49% 29.89 in 10.0 mi South 11.5 mph 19.6 mph N/A   Clear
10:35 AM 81.0 °F 81.2 °F 58.1 °F 46% 29.89 in 10.0 mi SSW 17.3 mph 24.2 mph N/A   Clear
10:55 AM 80.1 °F 80.5 °F 57.4 °F 46% 29.89 in 10.0 mi SSW 19.6 mph 28.8 mph N/A   Clear
11:15 AM 79.9 °F - 57.7 °F 47% 29.88 in 10.0 mi South 13.8 mph 27.6 mph N/A   Clear
11:35 AM 80.2 °F 80.6 °F 57.7 °F 46% 29.88 in 10.0 mi South 12.7 mph 26.5 mph N/A   Clear
11:55 AM 82.8 °F 82.1 °F 56.3 °F 40% 29.87 in 10.0 mi South 18.4 mph 29.9 mph N/A   Clear
12:15 PM 81.9 °F 81.6 °F 56.7 °F 42% 29.87 in 10.0 mi South 17.3 mph 31.1 mph N/A   Scattered Clouds
12:35 PM 82.8 °F 82.4 °F 57.2 °F 42% 29.86 in 10.0 mi SSW 21.9 mph 28.8 mph N/A   Scattered Clouds
12:55 PM 82.6 °F 82.3 °F 58.3 °F 43% 29.86 in 10.0 mi South 23.0 mph 34.5 mph N/A   Mostly Cloudy
1:15 PM 83.8 °F 83.6 °F 58.8 °F 43% 29.85 in 10.0 mi South 20.7 mph 32.2 mph N/A   Scattered Clouds
1:35 PM 82.4 °F 82.3 °F 58.5 °F 44% 29.84 in 10.0 mi SSW 23.0 mph 31.1 mph N/A   Scattered Clouds
1:55 PM 84.0 °F 83.8 °F 59.5 °F 43% 29.83 in 10.0 mi SSW 23.0 mph 33.4 mph N/A   Scattered Clouds
2:15 PM 78.6 °F - 61.5 °F 56% 29.84 in 10.0 mi SSW 21.9 mph 31.1 mph N/A Rain Light Rain
2:35 PM 82.4 °F 82.3 °F 58.5 °F 44% 29.83 in 10.0 mi SSW 23.0 mph 35.7 mph N/A   Mostly Cloudy
2:55 PM 82.4 °F 82.0 °F 57.2 °F 42% 29.83 in 10.0 mi SSW 24.2 mph 35.7 mph N/A   Mostly Cloudy
3:15 PM 81.3 °F 81.1 °F 56.5 °F 42% 29.83 in 10.0 mi SW 20.7 mph 33.4 mph N/A   Mostly Cloudy
3:55 PM 77.5 °F - 58.3 °F 51% 29.85 in 10.0 mi WSW 23.0 mph 28.8 mph N/A   Mostly Cloudy
4:15 PM 74.7 °F - 59.4 °F 59% 29.87 in 10.0 mi West 21.9 mph 31.1 mph N/A   Mostly Cloudy
4:35 PM 72.1 °F - 58.1 °F 61% 29.89 in 10.0 mi West 19.6 mph 28.8 mph N/A   Mostly Cloudy
4:55 PM 69.4 °F - 56.7 °F 64% 29.91 in 10.0 mi West 16.1 mph 28.8 mph N/A   Mostly Cloudy
5:15 PM 66.0 °F - 55.6 °F 69% 29.93 in 10.0 mi West 12.7 mph 31.1 mph N/A   Overcast
5:35 PM 63.0 °F - 54.5 °F 74% 29.94 in 10.0 mi West 15.0 mph 32.2 mph N/A   Overcast
5:55 PM 62.4 °F - 53.1 °F 71% 29.96 in 10.0 mi West 18.4 mph 27.6 mph N/A   Overcast
6:15 PM 61.2 °F - 52.5 °F 73% 29.97 in 10.0 mi West 13.8 mph 23.0 mph N/A   Overcast
6:35 PM 60.1 °F - 50.4 °F 70% 29.97 in 10.0 mi West 16.1 mph 24.2 mph N/A   Overcast
6:55 PM 59.7 °F - 49.8 °F 70% 29.98 in 10.0 mi WNW 13.8 mph 21.9 mph N/A   Overcast
7:15 PM 58.3 °F - 49.1 °F 71% 29.99 in 10.0 mi West 15.0 mph 24.2 mph N/A   Overcast
7:35 PM 57.4 °F - 49.1 °F 74% 30.00 in 10.0 mi West 12.7 mph 19.6 mph N/A   Overcast
7:55 PM 56.1 °F - 49.3 °F 78% 29.99 in 10.0 mi West 9.2 mph 23.0 mph N/A   Overcast
8:15 PM 54.7 °F - 50.0 °F 84% 30.00 in 7.0 mi West 16.1 mph 24.2 mph N/A   Overcast
8:35 PM 53.6 °F - 50.4 °F 89% 30.01 in 7.0 mi WNW 9.2 mph 19.6 mph N/A   Overcast
8:55 PM 52.5 °F - 50.4 °F 92% 30.02 in 4.0 mi NW 8.1 mph 17.3 mph N/A Rain Heavy Rain
9:15 PM 52.0 °F - 50.0 °F 93% 30.04 in 10.0 mi NW 4.6 mph 17.3 mph N/A   Overcast
9:55 PM 51.1 °F - 48.2 °F 90% 30.07 in 10.0 mi WNW 9.2 mph 19.6 mph N/A   Overcast
10:15 PM 50.5 °F - 48.2 °F 92% 30.08 in 10.0 mi NW 10.4 mph 16.1 mph N/A   Overcast
10:35 PM 50.0 °F - 47.5 °F 91% 30.08 in 10.0 mi NW 8.1 mph - N/A   Light Drizzle
10:55 PM 49.6 °F - 46.4 °F 89% 30.08 in 10.0 mi NW 9.2 mph - N/A   Overcast
11:15 PM 49.8 °F - 45.7 °F 86% 30.07 in 10.0 mi NW 11.5 mph - N/A   Overcast
11:35 PM 49.1 °F - 45.1 °F 86% 30.07 in 10.0 mi WNW 9.2 mph - N/A   Overcast
11:55 PM 49.1 °F - 44.1 °F 83% 30.09 in 10.0 mi NW 8.1 mph 17.3 mph N/A   Overcast